Hourly Weather Siemianowice Śląskie

Today, 5 August, Wednesday

Time Temperature Precipitation Wind Pressure Humidity
00:00 +16°C° 0 mm 3 mps 737 mmHg 92%
01:00 +16°C° 0 mm 2 mps 737 mmHg 95%
02:00 +16°C° 0 mm 2 mps 737 mmHg 94%
03:00 +16°C° 0 mm 3 mps 738 mmHg 93%
04:00 +16°C° 0 mm 3 mps 738 mmHg 91%
05:00 +16°C° 0 mm 3 mps 738 mmHg 89%
06:00 +16°C° 0 mm 3 mps 738 mmHg 87%
07:00 +17°C° 0 mm 3 mps 739 mmHg 83%
08:00 +17°C° 0 mm 3 mps 739 mmHg 78%
09:00 +18°C° 0 mm 3 mps 740 mmHg 73%
10:00 +18°C° 0 mm 3 mps 740 mmHg 69%
11:00 +19°C° 0 mm 3 mps 740 mmHg 63%
12:00 +21°C° 0 mm 3 mps 740 mmHg 57%
13:00 +22°C° 0 mm 3 mps 740 mmHg 52%
14:00 +22°C° 0 mm 3 mps 740 mmHg 52%
15:00 +22°C° 0 mm 3 mps 740 mmHg 51%
16:00 +24°C° 0 mm 3 mps 740 mmHg 51%
17:00 +22°C° 0 mm 3 mps 740 mmHg 56%
18:00 +20°C° 0 mm 3 mps 740 mmHg 60%
19:00 +19°C° 0 mm 3 mps 740 mmHg 65%
20:00 +19°C° 0 mm 3 mps 740 mmHg 66%
21:00 +18°C° 0 mm 3 mps 740 mmHg 67%
22:00 +17°C° 0 mm 3 mps 740 mmHg 68%
23:00 +17°C° 0 mm 3 mps 740 mmHg 68%

Tomorrow, 6 August, Thursday

Time Temperature Precipitation Wind Pressure Humidity
00:00 +17°C° 0 mm 3 mps 740 mmHg 69%
01:00 +17°C° 0 mm 3 mps 741 mmHg 70%
02:00 +17°C° 0 mm 3 mps 740 mmHg 70%
03:00 +17°C° 0 mm 3 mps 740 mmHg 71%
04:00 +16°C° 0 mm 3 mps 740 mmHg 72%
05:00 +17°C° 0 mm 3 mps 740 mmHg 73%
06:00 +18°C° 0 mm 3 mps 741 mmHg 74%
07:00 +19°C° 0 mm 3 mps 741 mmHg 75%
08:00 +20°C° 0 mm 3 mps 741 mmHg 73%
09:00 +22°C° 0 mm 4 mps 741 mmHg 71%
10:00 +23°C° 0 mm 4 mps 741 mmHg 69%
11:00 +25°C° 0 mm 4 mps 741 mmHg 66%
12:00 +26°C° 0 mm 4 mps 741 mmHg 63%
13:00 +27°C° 0 mm 4 mps 741 mmHg 60%
14:00 +27°C° 0 mm 4 mps 741 mmHg 60%
15:00 +27°C° 0 mm 3 mps 741 mmHg 60%
16:00 +27°C° 0 mm 3 mps 741 mmHg 61%
17:00 +26°C° 0.1 mm 2 mps 741 mmHg 64%
18:00 +25°C° 0.1 mm 2 mps 741 mmHg 68%
19:00 +25°C° 0.1 mm 1 mps 741 mmHg 72%
20:00 +24°C° 0 mm 1 mps 741 mmHg 74%
21:00 +23°C° 0 mm 2 mps 742 mmHg 77%
22:00 +21°C° 0 mm 2 mps 742 mmHg 79%
23:00 +21°C° 0 mm 2 mps 742 mmHg 80%

Day after tomorrow, 7 August, Friday

Time Temperature Precipitation Wind Pressure Humidity
00:00 +20°C° 0 mm 2 mps 742 mmHg 81%
01:00 +20°C° 0 mm 2 mps 742 mmHg 82%
02:00 +20°C° 0 mm 2 mps 742 mmHg 84%
03:00 +19°C° 0 mm 2 mps 742 mmHg 85%
04:00 +19°C° 0 mm 2 mps 742 mmHg 86%
05:00 +20°C° 0 mm 3 mps 742 mmHg 81%
06:00 +21°C° 0 mm 3 mps 742 mmHg 77%
07:00 +22°C° 0 mm 3 mps 743 mmHg 72%
08:00 +25°C° 0 mm 4 mps 743 mmHg 64%
09:00 +27°C° 0 mm 4 mps 743 mmHg 57%
10:00 +29°C° 0 mm 5 mps 743 mmHg 50%
11:00 +29°C° 0 mm 5 mps 743 mmHg 48%
12:00 +30°C° 0 mm 5 mps 743 mmHg 45%
13:00 +32°C° 0 mm 5 mps 743 mmHg 43%
14:00 +30°C° 0 mm 4 mps 742 mmHg 44%
15:00 +30°C° 0 mm 4 mps 742 mmHg 45%
16:00 +30°C° 0 mm 4 mps 742 mmHg 46%
17:00 +29°C° 0 mm 4 mps 742 mmHg 51%
18:00 +27°C° 0 mm 3 mps 742 mmHg 57%
19:00 +25°C° 0 mm 3 mps 742 mmHg 62%
20:00 +25°C° 0 mm 3 mps 742 mmHg 65%
21:00 +24°C° 0 mm 3 mps 742 mmHg 68%
22:00 +22°C° 0 mm 3 mps 742 mmHg 71%
23:00 +21°C° 0 mm 3 mps 742 mmHg 75%

8 August, Saturday

Time Temperature Precipitation Wind Pressure Humidity
00:00 +21°C° 0 mm 3 mps 742 mmHg 78%
01:00 +20°C° 0 mm 3 mps 742 mmHg 81%
02:00 +20°C° 0 mm 3 mps 741 mmHg 83%
03:00 +20°C° 0 mm 3 mps 741 mmHg 86%
04:00 +19°C° 0 mm 3 mps 741 mmHg 88%
05:00 +20°C° 0 mm 3 mps 741 mmHg 85%
06:00 +21°C° 0 mm 3 mps 741 mmHg 82%
07:00 +22°C° 0 mm 3 mps 742 mmHg 78%
08:00 +25°C° 0 mm 3 mps 742 mmHg 72%
09:00 +27°C° 0 mm 4 mps 742 mmHg 65%
10:00 +28°C° 0 mm 4 mps 742 mmHg 59%
11:00 +29°C° 0 mm 4 mps 741 mmHg 55%
12:00 +30°C° 0 mm 4 mps 741 mmHg 52%
13:00 +32°C° 0 mm 4 mps 741 mmHg 49%
14:00 +30°C° 0 mm 4 mps 741 mmHg 49%
15:00 +30°C° 0 mm 4 mps 741 mmHg 50%
16:00 +30°C° 0 mm 4 mps 740 mmHg 50%
17:00 +29°C° 0 mm 4 mps 740 mmHg 55%
18:00 +27°C° 0 mm 3 mps 740 mmHg 61%
19:00 +26°C° 0 mm 3 mps 740 mmHg 66%
20:00 +25°C° 0 mm 3 mps 740 mmHg 69%
21:00 +24°C° 0 mm 3 mps 740 mmHg 71%
22:00 +22°C° 0 mm 3 mps 741 mmHg 74%
23:00 +21°C° 0 mm 3 mps 740 mmHg 77%

9 August, Sunday

Time Temperature Precipitation Wind Pressure Humidity
00:00 +21°C° 0 mm 3 mps 740 mmHg 79%
01:00 +20°C° 0 mm 3 mps 740 mmHg 81%
02:00 +20°C° 0 mm 3 mps 740 mmHg 83%
03:00 +19°C° 0 mm 3 mps 740 mmHg 84%
04:00 +19°C° 0 mm 3 mps 740 mmHg 85%
05:00 +20°C° 0 mm 3 mps 740 mmHg 80%
06:00 +21°C° 0 mm 3 mps 740 mmHg 75%
07:00 +22°C° 0 mm 4 mps 740 mmHg 70%
08:00 +23°C° 0 mm 4 mps 740 mmHg 65%
09:00 +26°C° 0 mm 4 mps 740 mmHg 59%
10:00 +27°C° 0 mm 4 mps 740 mmHg 53%
11:00 +28°C° 0 mm 4 mps 740 mmHg 50%
12:00 +29°C° 0 mm 4 mps 740 mmHg 47%
13:00 +30°C° 0 mm 4 mps 740 mmHg 45%
14:00 +30°C° 0 mm 4 mps 739 mmHg 45%
15:00 +30°C° 0 mm 4 mps 739 mmHg 46%
16:00 +29°C° 0 mm 4 mps 739 mmHg 46%
17:00 +28°C° 0 mm 3 mps 739 mmHg 52%
18:00 +27°C° 0 mm 3 mps 739 mmHg 57%
19:00 +25°C° 0 mm 2 mps 739 mmHg 62%
20:00 +24°C° 0 mm 2 mps 739 mmHg 65%
21:00 +24°C° 0 mm 2 mps 739 mmHg 68%
22:00 +23°C° 0 mm 2 mps 739 mmHg 70%
23:00 +21°C° 0 mm 2 mps 739 mmHg 72%

10 August, Monday

Time Temperature Precipitation Wind Pressure Humidity
00:00 +21°C° 0 mm 2 mps 739 mmHg 73%
01:00 +20°C° 0 mm 2 mps 739 mmHg 75%
02:00 +20°C° 0 mm 2 mps 739 mmHg 77%
03:00 +20°C° 0 mm 2 mps 739 mmHg 78%
04:00 +19°C° 0 mm 2 mps 739 mmHg 80%
05:00 +20°C° 0 mm 2 mps 739 mmHg 76%
06:00 +23°C° 0 mm 2 mps 739 mmHg 72%
07:00 +24°C° 0 mm 2 mps 739 mmHg 68%
08:00 +25°C° 0 mm 2 mps 739 mmHg 63%
09:00 +27°C° 0 mm 3 mps 739 mmHg 57%
10:00 +28°C° 0 mm 3 mps 739 mmHg 51%
11:00 +29°C° 0 mm 3 mps 739 mmHg 48%
12:00 +30°C° 0 mm 3 mps 739 mmHg 45%
13:00 +30°C° 0 mm 3 mps 739 mmHg 42%
14:00 +30°C° 0 mm 3 mps 739 mmHg 43%
15:00 +30°C° 0 mm 3 mps 739 mmHg 43%
16:00 +30°C° 0 mm 3 mps 739 mmHg 44%
17:00 +28°C° 0 mm 3 mps 739 mmHg 49%
18:00 +27°C° 0 mm 3 mps 739 mmHg 54%
19:00 +25°C° 0 mm 2 mps 739 mmHg 60%
20:00 +25°C° 0 mm 2 mps 739 mmHg 62%
21:00 +24°C° 0 mm 2 mps 739 mmHg 65%
22:00 +23°C° 0 mm 2 mps 739 mmHg 68%
23:00 +21°C° 0 mm 2 mps 739 mmHg 70%
Show more